User: anonymous   Login
Location: Morlupo
(42.1333°N, 12.5000°E)
Time: 15:59:00
(UTC+00:00)
Language:

Cosmos 2026 Rocket - Orbit

View from above orbital plane
View from above orbital plane
View from above satellite
View from above satellite

Ground track
Ground track

The orbit data is extracted from the following two-line orbital elements,

1 20046U 89042B   20333.81256123  .00000008  00000-0 -78269-5 0  9990
2 20046  82.9376  83.6555 0043030 132.6146 227.8654 13.78204139582887
Epoch (UTC): 28 November 2020 19:30:05
Eccentricity: 0.0043030
inclination: 82.9376°
perigee height: 938 km
apogee height: 1002 km
right ascension of ascending node: 83.6555°
argument of perigee: 132.6146°
revolutions per day: 13.78204139
mean anomaly at epoch: 227.8654°
orbit number at epoch: 58288

The dashed part of the orbit path shows where the satellite is in the earth's shadow,  

DLR